Printer-friendly version

IAU Minor Planet Center

Minor Planet Center

136P/Mueller

Orbital Elements

The following orbital elements are taken from MPC 60282:
136P/Mueller
Epoch 2007 Oct. 27.0 TT = JDT 2454400.5
T 2007 Oct. 22.1963 TT                                  MPC
q   2.960636             (2000.0)            P               Q
n   0.1150244      Peri.  224.8589      +0.9926796      -0.0486817
a   4.187384       Node   137.5609      +0.0782447      +0.9563664
e   0.292963       Incl.    9.4274      -0.0920049      +0.2880858
P   8.57
From 109 observations 1990-2007, mean residual 0".9.
Elements are also available for the current standard epoch:
136P/Mueller
Epoch 2010 Jan. 4.0 TT = JDT 2455200.5
T 2007 Oct. 22.9726 TT                                  MPC
q   2.961880             (2000.0)            P               Q
n   0.1148112      Peri.  225.0169      +0.9925476      -0.0512622
a   4.192565       Node   137.5519      +0.0807379      +0.9561546
e   0.293540       Incl.    9.4274      -0.0912729      +0.2883411
P   8.58
An explanation of the orbital elements is available.

These orbital elements are also available in forms suitable for loading into a number of popular planetarium-type software programs.


Ephemeris

The following ephemeris is at intervals of five days. A daily ephemeris covering the same time interval is also available.

Personalized ephemerides for this (and other) objects may be generated using the Minor Planet & Comet Ephemeris Service.

Recent magnitude estimates for this comet (as reported to the ICQ) may be available.

Date    TT    R. A. (2000) Decl.     Delta      r     Elong.  Phase   m1    m2

WARNING!

This comet gets close to the sun during the period covered in the ephemeris below. Observers are warned to be wary of observing comets near the sun. NEVER point any kind of optical instrument at the sun--instant blindness will be the probable result.

2009 10 26 08 57.39 +14 16.2 4.488 4.423 79.9 12.8 20.7 22.2 2009 10 31 08 59.69 +14 08.1 4.422 4.434 84.3 12.9 20.7 22.2 2009 11 05 09 01.68 +14 01.4 4.355 4.446 88.8 12.9 20.7 22.2 2009 11 10 09 03.33 +13 56.0 4.288 4.457 93.4 12.8 20.7 22.2 2009 11 15 09 04.64 +13 52.1 4.221 4.469 98.1 12.7 20.6 22.1 2009 11 20 09 05.59 +13 50.0 4.154 4.480 102.9 12.4 20.6 22.1 2009 11 25 09 06.16 +13 49.6 4.090 4.491 107.8 12.1 20.6 22.0 2009 11 30 09 06.36 +13 51.0 4.027 4.502 112.8 11.6 20.6 22.0 2009 12 05 09 06.17 +13 54.3 3.967 4.513 118.0 11.1 20.5 22.0 2009 12 10 09 05.59 +13 59.5 3.910 4.524 123.2 10.5 20.5 21.9 2009 12 15 09 04.63 +14 06.7 3.856 4.535 128.5 9.8 20.5 21.9 2009 12 20 09 03.29 +14 15.7 3.808 4.546 134.0 9.0 20.5 21.8 2009 12 25 09 01.59 +14 26.6 3.764 4.557 139.5 8.1 20.5 21.7 2009 12 30 08 59.56 +14 39.1 3.727 4.568 145.1 7.1 20.5 21.7 2010 01 04 08 57.23 +14 53.1 3.695 4.579 150.8 6.0 20.4 21.6 2010 01 09 08 54.63 +15 08.4 3.670 4.589 156.5 4.9 20.4 21.5 2010 01 14 08 51.81 +15 24.8 3.653 4.600 162.3 3.7 20.4 21.5 2010 01 19 08 48.82 +15 42.0 3.643 4.610 168.2 2.5 20.4 21.4 2010 01 24 08 45.72 +15 59.7 3.641 4.621 173.9 1.3 20.5 21.3 2010 01 29 08 42.57 +16 17.7 3.647 4.631 178.1 0.4 20.5 21.2 2010 02 03 08 39.44 +16 35.6 3.661 4.642 173.8 1.3 20.5 21.3 2010 02 08 08 36.38 +16 53.1 3.683 4.652 168.1 2.5 20.5 21.4 2010 02 13 08 33.45 +17 10.1 3.712 4.662 162.3 3.7 20.5 21.5 2010 02 18 08 30.70 +17 26.4 3.749 4.673 156.6 4.8 20.6 21.6 2010 02 23 08 28.20 +17 41.6 3.794 4.683 150.9 5.9 20.6 21.7 2010 02 28 08 25.98 +17 55.7 3.845 4.693 145.3 6.9 20.6 21.8 2010 03 05 08 24.07 +18 08.6 3.902 4.703 139.8 7.8 20.7 21.9 2010 03 10 08 22.49 +18 20.1 3.964 4.713 134.4 8.7 20.7 21.9 2010 03 15 08 21.28 +18 30.3 4.032 4.723 129.1 9.4 20.8 22.0 2010 03 20 08 20.43 +18 39.0 4.105 4.733 123.9 10.1 20.8 22.1 2010 03 25 08 19.97 +18 46.3 4.181 4.742 118.8 10.6 20.9 22.2 2010 03 30 08 19.88 +18 52.2 4.261 4.752 113.8 11.1 20.9 22.2 2010 04 04 08 20.15 +18 56.7 4.343 4.762 108.9 11.5 21.0 22.3 2010 04 09 08 20.78 +18 59.8 4.427 4.771 104.1 11.7 21.0 22.3 2010 04 14 08 21.76 +19 01.6 4.513 4.781 99.4 11.9 21.1 22.4 2010 04 19 08 23.08 +19 02.0 4.600 4.790 94.8 12.1 21.1 22.4 2010 04 24 08 24.71 +19 01.1 4.687 4.800 90.3 12.1 21.2 22.5 2010 04 29 08 26.63 +18 59.0 4.775 4.809 85.9 12.1 21.2 22.5 2010 05 04 08 28.84 +18 55.7 4.861 4.818 81.6 11.9 21.3 22.6 2010 05 09 08 31.30 +18 51.2 4.947 4.828 77.3 11.8 21.3 22.6 2010 05 14 08 34.01 +18 45.5 5.032 4.837 73.2 11.5 21.4 22.6 2010 05 19 08 36.94 +18 38.7 5.115 4.846 69.0 11.2 21.4 22.7 2010 05 24 08 40.07 +18 30.8 5.196 4.855 65.0 10.9 21.4 22.7 2010 05 29 08 43.39 +18 21.9 5.274 4.864 61.0 10.5 21.5 22.7 2010 06 03 08 46.88 +18 12.1 5.350 4.873 57.0 10.1 21.5 22.7 2010 06 08 08 50.53 +18 01.2 5.423 4.882 53.1 9.6 21.6 22.7 2010 06 13 08 54.31 +17 49.4 5.492 4.890 49.3 9.1 21.6 22.8 2010 06 18 08 58.22 +17 36.7 5.558 4.899 45.4 8.5 21.6 22.8 2010 06 23 09 02.24 +17 23.2 5.620 4.908 41.6 7.9 21.7 22.8 2010 06 28 09 06.35 +17 08.8 5.679 4.916 37.9 7.3 21.7 22.8 2010 07 03 09 10.54 +16 53.8 5.733 4.925 34.2 6.7 21.7 22.8 2010 07 08 09 14.81 +16 38.0 5.783 4.933 30.4 6.0 21.7 22.7 2010 07 13 09 19.14 +16 21.5 5.828 4.941 26.8 5.3 21.8 22.7 2010 07 18 09 23.52 +16 04.4 5.869 4.950 23.1 4.6 21.8 22.7 2010 07 23 09 27.93 +15 46.7 5.905 4.958 19.4 3.9 21.8 22.7 2010 07 28 09 32.38 +15 28.6 5.936 4.966 15.7 3.2 21.8 22.7 2010 08 02 09 36.84 +15 10.0 5.962 4.974 12.1 2.5 21.8 22.6 2010 08 07 09 41.31 +14 51.0 5.983 4.982 8.5 1.7 21.9 22.6 2010 08 12 09 45.78 +14 31.6 5.999 4.990 4.8 1.0 21.9 22.5 2010 08 17 09 50.24 +14 12.0 6.010 4.998 1.5 0.3 21.9 22.5 2010 08 22 09 54.68 +13 52.1 6.016 5.006 2.8 0.6 21.9 22.5 2010 08 27 09 59.09 +13 32.2 6.016 5.013 6.4 1.3 21.9 22.6 2010 09 01 10 03.47 +13 12.1 6.012 5.021 10.1 2.0 21.9 22.6 2010 09 06 10 07.80 +12 52.1 6.002 5.029 13.8 2.7 21.9 22.7 2010 09 11 10 12.08 +12 32.1 5.987 5.036 17.6 3.5 21.9 22.7 2010 09 16 10 16.30 +12 12.3 5.967 5.044 21.4 4.2 21.9 22.8 2010 09 21 10 20.44 +11 52.8 5.942 5.051 25.2 4.9 21.9 22.8 2010 09 26 10 24.49 +11 33.5 5.912 5.058 29.0 5.5 21.9 22.8 2010 10 01 10 28.46 +11 14.7 5.877 5.066 32.9 6.2 21.9 22.8 2010 10 06 10 32.32 +10 56.5 5.837 5.073 36.8 6.8 21.9 22.9 2010 10 11 10 36.06 +10 38.8 5.793 5.080 40.8 7.4 21.9 22.9 2010 10 16 10 39.68 +10 21.9 5.745 5.087 44.8 7.9 21.9 22.9 2010 10 21 10 43.17 +10 05.7 5.693 5.094 48.9 8.5 21.8 22.9 2010 10 26 10 46.50 +09 50.5 5.637 5.101 53.0 9.0 21.8 22.9 2010 10 31 10 49.67 +09 36.4 5.577 5.108 57.2 9.4 21.8 22.9 2010 11 05 10 52.67 +09 23.3 5.514 5.114 61.4 9.8 21.8 22.9 2010 11 10 10 55.48 +09 11.5 5.448 5.121 65.7 10.2 21.8 22.9 2010 11 15 10 58.08 +09 01.1 5.379 5.128 70.1 10.5 21.8 22.9 2010 11 20 11 00.47 +08 52.2 5.309 5.134 74.5 10.7 21.7 22.9 2010 11 25 11 02.62 +08 44.8 5.236 5.141 79.0 10.9 21.7 22.8 2010 11 30 11 04.53 +08 39.1 5.162 5.147 83.6 11.0 21.7 22.8

Valid HTML 4.01!